Simultaneous Nadir Overpasses (SNOs) Predictions

Prediction of SNOs between AURA and NPP Satellite Orbit:

Table of predicted SNOs for the next 14.0 days since TLE Epoch: 7/6/2024
Index Date (AURA) Time (AURA) Lat,Lon (AURA) SZA (AURA ) Date (NPP) Time (NPP) Lat,Lon (NPP) SZA (NPP ) Distance(km) Time Diff (sec)
1 07/06/2024 23:20:52 -80.69, -80.38 112.01 07/06/2024 23:20:45 -80.69, -80.45 112.00 1.27 7
2 07/07/2024 00:09:46 81.37, 97.59 66.40 07/07/2024 00:10:59 81.18, 98.15 66.25 22.49 73
3 07/09/2024 12:15:39 -80.67, 85.71 111.67 07/09/2024 12:14:45 -80.66, 85.70 111.63 0.34 54
4 07/09/2024 13:05:00 80.71,-106.16 68.26 07/09/2024 13:05:28 80.71,-106.32 68.27 2.90 28
5 07/12/2024 01:59:46 80.68, 59.87 68.66 07/12/2024 01:59:28 80.68, 59.76 68.69 1.98 18
6 07/12/2024 02:49:08 -80.75,-131.71 111.47 07/12/2024 02:50:10 -80.74,-131.86 111.49 2.68 62
7 07/14/2024 14:54:30 80.65,-134.12 69.09 07/14/2024 14:53:27 80.65,-134.20 69.15 1.53 63
8 07/14/2024 15:43:52 -80.72, 34.31 111.04 07/14/2024 15:44:09 -80.72, 34.18 111.03 2.20 17
9 07/17/2024 04:38:36 -80.69,-159.70 110.56 07/17/2024 04:38:09 -80.69,-159.82 110.52 2.08 27
10 07/17/2024 05:27:55 80.78, 9.04 69.27 07/17/2024 05:28:49 80.78, 9.16 69.22 2.21 54
11 07/19/2024 17:33:19 -80.66, 6.26 110.04 07/19/2024 17:32:09 -80.65, 6.14 109.97 2.33 70



Historial Predications of SNOs between AURA and NPP
